Flag for Poland Weather past 2 weeks in Tarnów, Poland

Now
74 °F

Mild.


Feels Like: 77 °F
Forecast: 59 / 92 °F
Wind: 2 mph from Southeast

Location: Tarnow

Current Time: Aug 27, 2015 at 10:31:59 PM

Latest Report: Aug 27, 2015 at 9:00 PM


Visibility: 13 mi

Pressure: 29.98 "Hg

Humidity: 58%

Dew point: 58 °F

Location of TarnówLocation

Historic Weather in Tarnów — Graph

°F

Tarnów temperature yesterday

Maximum temperature yesterday: 78 °F (at 4:00 PM)
Minimum temperature yesterday: 55 °F (at 5:00 AM)
Average temperature yesterday: 66 °F

Past Weeks' High & Low Weather Summary

 TemperatureHumidityPressure
High93 °F (Aug 15, 3:00 PM)98% (Aug 17, 1:00 AM)30.32 "Hg (Aug 17, 1:00 AM)
Low47 °F (Aug 21, 5:00 AM)26% (Aug 20, 4:00 PM)29.73 "Hg (Aug 15, 5:00 PM)
Average70 °F58%30.02 "Hg
* Reported Aug 12 9:00 PM — Aug 27 9:00 PM, Tarnów, Weather by CustomWeather, © 2015

Note: Actual official high and low records may vary slightly from our data, if they occured in-between our weather recording intervals... More about our weather records

Advertising

Tarnów weather history for previous 24 hours

 ConditionsComfort  
Time TempWeatherWind HumidityBarometerVisibility
9:00 PM
Thu, Aug 27
74 °FMild.2 mph58%29.98 "Hg12 mi
8:00 PM76 °FMild.1 mph55%29.98 "Hg12 mi
7:00 PM81 °FSmoke.1 mph45%29.97 "Hg7 mi
6:00 PM85 °FPleasantly warm.1 mph37%29.97 "Hg18 mi
5:00 PM87 °FPleasantly warm.1 mph30%29.97 "Hg22 mi
4:00 PM88 °FHot.2 mph30%29.98 "Hg18 mi
3:00 PM87 °FPleasantly warm.2 mph32%29.99 "Hg19 mi
2:00 PM85 °FPleasantly warm.2 mph32%30.01 "Hg19 mi
1:00 PM84 °FPleasantly warm.2 mph35%30.03 "Hg16 mi
12:00 PM81 °FPleasantly warm.1 mph39%30.05 "Hg18 mi
11:00 AM77 °FWarm.1 mph46%30.06 "Hg17 mi
10:00 AM72 °FMild.1 mph55%30.08 "Hg17 mi
9:00 AM69 °FMild.1 mph64%30.08 "Hg19 mi
8:00 AM64 °FMild.1 mph79%30.09 "Hg22 mi
7:00 AM56 °FCool.No wind97%30.10 "Hg10 mi
6:00 AM54 °FCool.No wind94%30.11 "Hg6 mi
5:00 AM55 °FCool.1 mph94%30.10 "Hg13 mi
4:00 AM56 °FCool.1 mph90%30.11 "Hg14 mi
3:00 AM57 °FCool.1 mph86%30.11 "Hg19 mi
2:00 AM57 °FCool.1 mph87%30.13 "Hg22 mi
1:00 AM57 °FCool.1 mph86%30.12 "Hg19 mi
12:00 AM58 °FCool.1 mph82%30.13 "Hg19 mi
10:00 PM
Wed, Aug 26
59 °FCool.1 mph80%30.14 "Hg17 mi
Weather by CustomWeather, © 2015

See weather overviewHow to use our weather pages